Back to catalog

DELTA 1 DEB

AlivePO
NORAD 26838·DEBRIS·🇺🇸 United States

Launched Jun 12, 1975 from Vandenberg Space Force Base

Loading…

Next Passes (next 24 hours)

TLE

FreshSource: Space-Track

Epoch: Sep 12, 2026, 18:47 UTC

1 26838U 75052KS  26255.78312567  .00000724  00000-0  21823-2 0  9996
2 26838  99.2596   3.2115 0311050 229.0622 287.5129 12.94746800523458

Track DELTA 1 DEB in real time with AllMySat

Download on the App Store